Tracking 18843 objects as of 21-November-2017
HD Live streaming from Space Station
objects crossing your sky now

FENGYUN 1C DEB

Track FENGYUN 1C DEB now!
10-day predictions


NORAD ID: 31971
Int'l Code: 1999-025CNY
Perigee: 793.3 km
Apogee: 812.9 km
Inclination: 102.3 °
Period: 100.8 minutes
Semi major axis: 7174 km
RCS: 0.0103 m2 (small)
Launch date: May 10, 1999
Source: People's Republic of China (PRC)
Launch site: Taiyaun Space Center, China (TSC)

Note: This is SATELLITE DEBRIS
aabbcc
Your satellite tracking list
Your tracking list is empty




NASA's NSSDC Master Catalog

Two Line Element Set (TLE):
1 31971U 99025CNY 17320.06815139 +.00001994 +00000-0 +82186-3 0  9993
2 31971 102.2699 041.3509 0013638 284.6358 195.2708 14.28727495229982
Source of the keplerian elements: AFSPC